Syracuse, NY

8:39 PM EDT on August 17, 2017 (GMT -0400)
Syracuse Hancock International

Weather History for KSYR - June, 2012

Change the Weather History Date:

Thursday, June 14, 2012

  Actual Average Record
Temperature  
Mean Temperature 64 °F 66 °F  
Max Temperature 78 °F 77 °F 95 °F (1988)
Min Temperature 50 °F 56 °F 43 °F (1946)
Degree Days  
Heating Degree Days 1 2  
Month to date heating degree days 42 42  
Since 1 June heating degree days 42 42  
Since 1 July heating degree days 5155 6632  
Cooling Degree Days 0 3  
Month to date cooling degree days 28 36  
Year to date cooling degree days 123 66  
Since 1 June cooling degree days 28 36  
Growing Degree Days 14 (Base 50)    
Moisture  
Dew Point 52 °F    
Average Humidity 68    
Maximum Humidity 100    
Minimum Humidity 35    
Precipitation  
Precipitation 0.00 in 0.12 in 2.86 in (2002)
Month to date precipitation 1.61 1.54  
Year to date precipitation 14.25 15.47  
Snow  
Snow 0.00 in 0.00 in 0.00 in (2002)
Month to date snowfall 0.0 0.0  
Since 1 June snowfall 0.0 0.0  
Since 1 July snowfall 50.6 123.8  
Snow Depth 0.00 in    
Sea Level Pressure  
Sea Level Pressure 30.23 in    
Wind  
Wind Speed 3 mph (NE)    
Max Wind Speed 13 mph    
Max Gust Speed 17 mph    
Visibility 10 miles    
Events Fog    
T = Trace of Precipitation, MM = Missing Value Source: NWS Daily Summary

Daily Weather History Graph

Daily Weather History Graph

Search for Another Location

Airport or City:

Trip Planner

Search our weather history database for the weather conditions in past years. The results will help you decide how hot, cold, wet, or windy it might be!

Date:

Astronomy

Jun. 14, 2012 Rise Set
Actual Time 5:24 AM EDT 8:45 PM EDT
Civil Twilight 4:48 AM EDT 9:20 PM EDT
Nautical Twilight 4:02 AM EDT 10:07 PM EDT
Astronomical Twilight 3:05 AM EDT 11:04 PM EDT
Moon 2:11 AM EDT (6/14) 4:22 PM EDT (6/14)
Length of Visible Light 16h 32m
Length of Day
15h 21m
Waning Crescent, 21% of the Moon is Illuminated
Jun 14
Waning Crescent
Jun 19
New
Jun 26
First Quarter
Jul 3
Full
Jul 10
Last Quarter

Hourly Weather History & Observations

Time (EDT) Temp. Dew Point Humidity Pressure Visibility Wind Dir Wind Speed Gust Speed Precip Events Conditions
12:54 AM 55.0 °F 52.0 °F 89% 30.19 in 10.0 mi Calm Calm - N/A   Clear
1:54 AM 53.1 °F 52.0 °F 96% 30.19 in 10.0 mi Calm Calm - N/A   Clear
2:54 AM 52.0 °F 51.1 °F 97% 30.19 in 10.0 mi Calm Calm - N/A   Clear
3:54 AM 52.0 °F 50.0 °F 93% 30.19 in 10.0 mi Calm Calm - N/A   Clear
4:54 AM 50.0 °F 48.9 °F 96% 30.20 in 10.0 mi Calm Calm - N/A Fog Shallow Fog
5:54 AM 51.1 °F 50.0 °F 96% 30.22 in 10.0 mi Calm Calm - N/A   Mostly Cloudy
6:54 AM 53.1 °F 51.1 °F 93% 30.24 in 10.0 mi Calm Calm - N/A   Mostly Cloudy
7:54 AM 57.0 °F 55.0 °F 93% 30.25 in 10.0 mi ESE 3.5 mph - N/A   Mostly Cloudy
8:54 AM 61.0 °F 55.0 °F 81% 30.27 in 10.0 mi Calm Calm - N/A   Scattered Clouds
9:54 AM 66.0 °F 54.0 °F 65% 30.28 in 10.0 mi Calm Calm - N/A   Scattered Clouds
10:54 AM 69.1 °F 53.1 °F 57% 30.27 in 10.0 mi East 6.9 mph - N/A   Scattered Clouds
11:54 AM 71.1 °F 53.1 °F 53% 30.26 in 10.0 mi Variable 3.5 mph - N/A   Scattered Clouds
12:54 PM 73.0 °F 53.1 °F 49% 30.25 in 10.0 mi Variable 3.5 mph - N/A   Scattered Clouds
1:54 PM 75.0 °F 48.0 °F 38% 30.24 in 10.0 mi NNE 6.9 mph - N/A   Mostly Cloudy
2:54 PM 75.9 °F 51.1 °F 42% 30.22 in 10.0 mi Variable 4.6 mph - N/A   Mostly Cloudy
3:54 PM 77.0 °F 48.9 °F 37% 30.22 in 10.0 mi Calm Calm - N/A   Scattered Clouds
4:54 PM 78.1 °F 48.9 °F 36% 30.21 in 10.0 mi East 4.6 mph - N/A   Scattered Clouds
5:54 PM 77.0 °F 52.0 °F 42% 30.22 in 10.0 mi North 6.9 mph - N/A   Scattered Clouds
6:54 PM 75.0 °F 54.0 °F 48% 30.22 in 10.0 mi NNW 11.5 mph - N/A   Partly Cloudy
7:54 PM 71.1 °F 52.0 °F 51% 30.23 in 10.0 mi NNW 11.5 mph - N/A   Partly Cloudy
8:54 PM 66.9 °F 53.1 °F 61% 30.22 in 10.0 mi North 3.5 mph - N/A   Partly Cloudy
9:54 PM 64.9 °F 52.0 °F 63% 30.23 in 10.0 mi Calm Calm - N/A   Partly Cloudy
10:54 PM 62.1 °F 53.1 °F 72% 30.24 in 10.0 mi Calm Calm - N/A   Partly Cloudy
11:54 PM 60.1 °F 53.1 °F 78% 30.23 in 10.0 mi ESE 3.5 mph - N/A   Partly Cloudy